Location: Warszawa
(52.2500°N, 21.0000°E)
Time: 18:34:16
(UTC+01:00)

Tiros 1 - Visible Passes

Search period start: 07 February 2023 00:00
Search period end: 17 February 2023 00:00
Orbit: 629 x 662 km, 48.4° (Epoch: 06 February)

Date Brightness Start Highest point End Pass type
(mag) Time Alt. Az. Time Alt. Az. Time Alt. Az.
07 Feb 9.3 05:06:35 12° SSW 05:06:35 12° SSW 05:07:29 10° SSW visible
15 Feb 9.1 19:15:47 10° SSW 19:17:15 16° S 19:17:15 16° S visible
16 Feb 9.2 18:01:43 10° SSE 18:03:08 11° SE 18:04:19 10° ESE visible
16 Feb 9.0 19:40:09 10° SW 19:41:57 21° SSW 19:41:57 21° SSW visible
